Regional Weather Roundup
Issued by NWS Sioux Falls, SD

Home | Current Version | Previous Version | Text Only | Print | Product List | Glossary On
Versions: 1 2 3 4 5 6 7 8 9 10 11 12 13 14 15 16 17 18 19 20 21 22 23 24 25 26 27 28 29 30 31 32 33 34 35 36 37 38 39 40 41 42 43 44 45 46 47 48 49 50
000
ASUS43 KFSD 010110
RWRFSD

WEATHER ROUNDUP FOR SE SOUTH DAKOTA/SW MINNESOTA/NW IOWA
NATIONAL WEATHER SERVICE SIOUX FALLS SD
800 PM CDT SAT APR 30 2016

NOTE: "FAIR" INDICATES FEW OR NO CLOUDS BELOW 12,000 FEET WITH NO
SIGNIFICANT WEATHER AND OR OBSTRUCTIONS TO VISIBILITY.


SDZ038>040-050-052>070-010200-
SOUTHEAST SOUTH DAKOTA

CITY           SKY/WX    TMP DP  RH WIND       PRES   REMARKS
BROOKINGS      LGT RAIN  46  39  76 E10       30.04R
CHAMBERLAIN    DRIZZLE   45  43  93 E13G22    30.07R
HURON          CLOUDY    51  38  60 NE9       30.07R
MADISON        LGT RAIN  43  43 100 E17G25    30.04R
MITCHELL       LGT RAIN  45  42  89 NE12      30.06R FOG
SIOUX FALLS    CLOUDY    44  40  85 E17       30.01R
WINNER         LGT RAIN  43  38  82 NE25G35   30.05R
YANKTON        CLOUDY    45  41  87 NE25      29.95R
$$

MNZ071-072-080-081-089-090-097-098-010200-
SOUTHWEST MINNESOTA

CITY           SKY/WX    TMP DP  RH WIND       PRES   REMARKS
FAIRMONT       CLOUDY    45  34  65 NE15G24   30.01R
JACKSON        LGT RAIN  43  41  93 E18G26    30.01R
LUVERNE        CLOUDY    43  37  81 E15       30.01R
MARSHALL       CLOUDY    47  40  76 E7        30.06R
MONTEVIDEO     CLOUDY    54  37  54 E16       30.09R
REDWOOD FALLS  CLOUDY    49  40  71 SE5       30.05R
TRACY          LGT RAIN  46  42  86 E14G20    30.04S
WINDOM         LGT RAIN  45  41  87 NE15G22   30.02S
WORTHINGTON    LGT RAIN  43  40  89 NE21      30.01R
$$

IAZ001>003-012>014-020>022-031-032-NEZ013-014-SDZ071-010200-
NORTHWEST IOWA

CITY           SKY/WX    TMP DP  RH WIND       PRES   REMARKS
CHEROKEE       CLOUDY    44  43  97 NE17G29   29.93R FOG
DENISON        CLOUDY    46  45  93 E20G31    29.84R FOG
ESTHERVILLE    LGT RAIN  42  41  96 NE21G30   29.99R FOG
LE MARS        CLOUDY    45  43  93 NE21G31   29.94R
ORANGE CITY    CLOUDY    45  43  93 E17G26    29.95R
SHELDON        MIX PCPN  43  43 100 NE28G33   29.95R
SIOUX CITY     RAIN      46  43  89 NE18G26   29.90R FOG
SPENCER        CLOUDY    43  40  89 NE23      29.98R FOG
STORM LAKE     CLOUDY    43  43 100 NE28G37   29.90R FOG
$$

ABBREVIATIONS USED IN REMARKS
   TC - TEMPERATURE IN CELSIUS
  WCI - WIND CHILL INDEX
   HX - HEAT INDEX
  VSB - VISIBILITY





USA.gov is the U.S. government's official web portal to all federal, state and local government web resources and services.